This is the latest recevied weather packets stored in our database for station/object WX4SGA. If no packets are shown the sender has not sent any weather packets the latest 1 day(s).
| Time | Temp. | Humidity | Pressure | Rain* | Wind** | Luminosity | Snow |
|---|---|---|---|---|---|---|---|
| 1778019504 | 28.89° C | 41% | 1015.2 hPa | 0 mm | 0.45 m/s, 1° | 116 W/m² | - |
| 1778019200 | 28.89° C | 40% | 1015.2 hPa | 0 mm | 0.45 m/s, 23° | 218 W/m² | - |
| 1778018897 | 29.44° C | 39% | 1015.2 hPa | 0 mm | 0.45 m/s, 293° | 266 W/m² | - |
| 1778018594 | 29.44° C | 39% | 1015.2 hPa | 0 mm | 0.45 m/s, 276° | 269 W/m² | - |
| 1778018293 | 30° C | 40% | 1015.2 hPa | 0 mm | 0.45 m/s, 14° | 250 W/m² | - |
| 1778017990 | 29.44° C | 39% | 1015.2 hPa | 0 mm | 0.45 m/s, 9° | 264 W/m² | - |
| 1778017688 | 29.44° C | 40% | 1015.2 hPa | 0 mm | 0.45 m/s, 336° | 312 W/m² | - |
| 1778017385 | 29.44° C | 42% | 1015.2 hPa | 0 mm | 0.45 m/s, 64° | 323 W/m² | - |
| 1778017082 | 29.44° C | 39% | 1015.2 hPa | 0 mm | 0.45 m/s, 113° | 343 W/m² | - |
| 1778016780 | 30° C | 39% | 1015.2 hPa | 0 mm | 1.79 m/s, 163° | 352 W/m² | - |
| 1778016475 | 30° C | 39% | 1015.2 hPa | 0 mm | 0.45 m/s, 91° | 383 W/m² | - |
| 1778016173 | 30° C | 39% | 1015.2 hPa | 0 mm | 0.45 m/s, 344° | 402 W/m² | - |
| 1778015869 | 29.44° C | 40% | 1014.9 hPa | 0 mm | 0.45 m/s, 339° | 432 W/m² | - |
| 1778015567 | 29.44° C | 39% | 1015.2 hPa | 0 mm | 0.45 m/s, 56° | 218 W/m² | - |
| 1778015263 | 29.44° C | 40% | 1014.9 hPa | 0 mm | 0.45 m/s, 64° | 441 W/m² | - |
| 1778014960 | 30° C | 38% | 1015.2 hPa | 0 mm | 0 m/s | 498 W/m² | - |
| 1778014657 | 30° C | 39% | 1015.2 hPa | 0 mm | 0.45 m/s, 26° | 506 W/m² | - |
| 1778014356 | 30° C | 39% | 1015.2 hPa | 0 mm | 0.89 m/s, 256° | 523 W/m² | - |
| 1778014051 | 29.44° C | 38% | 1015.2 hPa | 0 mm | 0.45 m/s, 349° | 536 W/m² | - |
| 1778013750 | 30° C | 38% | 1015.2 hPa | 0 mm | 0.89 m/s, 350° | 548 W/m² | - |
| 1778013446 | 30° C | 38% | 1015.2 hPa | 0 mm | 0.89 m/s, 187° | 545 W/m² | - |
| 1778013143 | 30° C | 38% | 1015.2 hPa | 0 mm | 1.34 m/s, 255° | 575 W/m² | - |
| 1778012839 | 30° C | 39% | 1015.6 hPa | 0 mm | 0.89 m/s, 25° | 597 W/m² | - |
| 1778012535 | 30.56° C | 38% | 1015.6 hPa | 0 mm | 1.34 m/s, 237° | 606 W/m² | - |
| 1778012232 | 30° C | 38% | 1015.6 hPa | 0 mm | 0.89 m/s, 78° | 610 W/m² | - |
* Rain latest hour (hover to see other rain measurements)
** Current wind speed in m/s (hover to see current wind gust speed)